Location: Bottenau
(48.5138°N, 8.0462°E)
Time: 04:50:40
(UTC+00:00)

Cosmos 44 Rocket - Pass Details

Date: 18 April 2021
Orbit: 636 x 754 km, 65.1° (Epoch: 09 May)

Event Time Altitude Azimuth Distance (km) Brightness Sun altitude
Exits shadow 22:36:36 60° 325° (NW) 847 3.8 -29.3°
Drops below altitude 10° 22:41:34 10° 34° (NNE) 2,278 6.4 -29.5°
Sets 22:44:02 0° 38° (NE) 3,212 7.3 -29.6°
